Regional Weather Roundup
Issued by NWS Jackson, KY

Home | Current Version | Previous Version | Graphics & Text | Print | Product List | Glossary On
Versions: 1 2 3 4 5 6 7 8 9 10 11 12 13 14 15 16 17 18 19 20 21 22 23 24 25 26 27 28 29 30 31 32 33 34 35 36 37 38 39 40 41 42 43 44 45 46 47 48 49 50
000
ASUS43 KJKL 211210
RWRJKL

EAST KENTUCKY HOURLY WEATHER ROUNDUP
NATIONAL WEATHER SERVICE JACKSON KY
800 AM EDT TUE OCT 21 2014

NOTE: "FAIR" INDICATES FEW OR NO CLOUDS BELOW 12,000 FEET WITH
NO SIGNIFICANT WEATHER AND/OR OBSTRUCTIONS TO VISIBILITY.

* THESE REPORTS ARE NOT UNDER NWS QUALITY CONTROL AND MAY NOT
  REPORT WEATHER SUCH AS PRECIPITATION AND FOG.

KYZ079-080-083-085-087-088-110-112-115-119-120-211300
...EASTERN KENTUCKY...

CITY           SKY/WX    TMP DP  RH WIND       PRES   REMARKS
JACKSON        MOCLDY    48  46  93 VRB3      29.96R
6HR MIN TEMP:  48; 6HR MAX TEMP:  52; 6HR PCP:  0.01;

LONDON         MOCLDY    44  41  89 CALM      29.99S FOG
6HR MIN TEMP:  44; 6HR MAX TEMP:  53;

SOMERSET*      FOG       43  43 100 CALM      30.02R VSB 1/4
MONTICELLO*    FOG       39  39 100 CALM      30.03R VSB<1/4
6HR MIN TEMP:  38; 6HR MAX TEMP:  55;

WILLIAMSBURG*  CLEAR     46  46 100 CALM      30.00R
MIDDLESBORO*   CLEAR     43  43  99 CALM      30.00R
6HR MIN TEMP:  43; 6HR MAX TEMP:  48;

HARLAN APT*    CLOUDY    50  50 100 CALM      29.98S
HAZARD APT*    PTSUNNY   50  50 100 SW6       29.97
BLACK MTN*       N/A     45  45 100 W2          N/A
PIKEVILLE APT* CLOUDY    50  48  93 SW5       29.95R
BIG SANDY*     PTSUNNY   51  49  95 W3        29.95R
6HR MIN TEMP:  50; 6HR MAX TEMP:  55;

MOREHEAD APT*  CLOUDY    50  48  93 CALM      29.98R FOG
$$

KYZ035-036-041-042-044-050-067-078-099-211300
...CENTRAL KENTUCKY...

CITY           SKY/WX    TMP DP  RH WIND       PRES   REMARKS
MT STERLING*   CLOUDY    50  46  87 NW6       29.99R
FLEMING/MASON* CLOUDY    48  48 100 W7        29.97R FOG
DANVILLE*      PTCLDY    50  45  81 NW7       30.01R
RICHMOND*      MOCLDY    50  46  87 W3        29.98R
LEXINGTON      MOCLDY    50  46  86 NW7       29.99R
6HR MIN TEMP:  50; 6HR MAX TEMP:  54;

FRANKFORT      CLOUDY    48  45  89 NW7       29.99R
6HR MIN TEMP:  47; 6HR MAX TEMP:  53;

$$

KYZ091>093-OHZ055-061-077-WVZ005-015-034-035-042-211300
...SOUTHERN OHIO/WEST VIRGINIA...

CITY           SKY/WX    TMP DP  RH WIND       PRES   REMARKS
COVINGTON      PTCLDY    45  42  89 W8        29.99R
COLUMBUS       LGT RAIN  50  47  89 NW13      29.91R
DAYTON         CLOUDY    49  43  80 NW12      29.98R
WILMINGTON     CLOUDY    49  44  83 NW13      29.95R
HUNTINGTON     CLOUDY    49  48  97 SW5       29.92R
CHARLESTON     CLOUDY    52  51  97 W3        29.91S
PINEVILLE*     CLOUDY    48  48 100 MISG      29.99S
BECKLEY        CLOUDY    48  45  89 SW6       29.94R
BLUEFIELD      CLOUDY    50  46  86 W5        29.95S
$$

VAZ002-007-008-TNZ017-027-036-066-071-211300
...SOUTHWEST VIRGINIA/EAST TENNESSEE...

CITY           SKY/WX    TMP DP  RH WIND       PRES   REMARKS
WISE*          CLOUDY    48  48 100 SW6       29.98R FOG
JONESVILLE*    CLOUDY    46  46 100 CALM      30.01R
ABINGDON*      CLOUDY    52  52 100 W6        29.98R FOG
BRISTOL        MOCLDY    50  49  96 CALM      29.98R
KNOXVILLE      PTCLDY    50  47  89 W6        30.00R
OAK RIDGE      CLEAR     48  46  93 CALM      30.01S
CROSSVILLE     CLEAR     48  45  89 W3        30.03R
NASHVILLE      CLEAR     47  45  93 CALM      30.04R
$$

...KEY TO REMARKS...
VSB - VISIBILITY IN MILES
WCI - WIND CHILL INDEX
HX  - HEAT INDEX

$$



USA.gov is the U.S. government's official web portal to all federal, state and local government web resources and services.